Regional Weather Roundup
Issued by NWS Jackson, KY

Home | Current Version | Previous Version | Graphics & Text | Print | Product List | Glossary On
Versions: 1 2 3 4 5 6 7 8 9 10 11 12 13 14 15 16 17 18 19 20 21 22 23 24 25 26 27 28 29 30 31 32 33 34 35 36 37 38 39 40 41 42 43 44 45 46 47 48 49 50
000
ASUS43 KJKL 031610
RWRJKL

EAST KENTUCKY HOURLY WEATHER ROUNDUP
NATIONAL WEATHER SERVICE JACKSON KY
1200 PM EDT FRI JUL 03 2015

NOTE: "FAIR" INDICATES FEW OR NO CLOUDS BELOW 12,000 FEET WITH
NO SIGNIFICANT WEATHER AND/OR OBSTRUCTIONS TO VISIBILITY.

* THESE REPORTS ARE NOT UNDER NWS QUALITY CONTROL AND MAY NOT
  REPORT WEATHER SUCH AS PRECIPITATION AND FOG.

KYZ079-080-083-085-087-088-110-112-115-119-120-031700
...EASTERN KENTUCKY...

CITY           SKY/WX    TMP DP  RH WIND       PRES   REMARKS
JACKSON        LGT RAIN  70  68  93 CALM      29.92R FOG
LONDON         LGT RAIN  69  65  86 SE5       29.93R
SOMERSET*      LGT RAIN  70  70 100 SW6       29.92R
MONTICELLO*    CLOUDY    73  71  93 W6        29.95R
MIDDLESBORO*   CLOUDY    72  69  92 CALM      29.94R
HARLAN APT*      N/A     68  68 100 CALM      29.94S
HAZARD APT*    HVY RAIN  70  70 100 S8        29.93
BLACK MTN*       N/A     63  63 100 S7          N/A
PIKEVILLE APT* CLOUDY    70  68  94 CALM      29.94R
BIG SANDY*     LGT RAIN  73  70  91 S5        29.92R
MOREHEAD APT*  CLOUDY    72  68  88 VRB3      29.92R
$$

KYZ035-036-041-042-044-050-067-078-099-031700
...CENTRAL KENTUCKY...

CITY           SKY/WX    TMP DP  RH WIND       PRES   REMARKS
MT STERLING*   CLOUDY    72  70  94 CALM      29.91S
FLEMING/MASON* CLOUDY    70  68  94 E5        29.90R
DANVILLE*      CLOUDY    72  70  94 SW7       29.91R
RICHMOND*      CLOUDY    73  68  83 S7        29.89R
LEXINGTON      CLOUDY    72  69  90 S3        29.89S
FRANKFORT      CLOUDY    72  67  84 NE5       29.88R
$$

KYZ091>093-OHZ055-061-077-WVZ005-015-034-035-042-031700
...SOUTHERN OHIO/WEST VIRGINIA...

CITY           SKY/WX    TMP DP  RH WIND       PRES   REMARKS
COVINGTON      CLOUDY    73  65  75 NE7       29.90R
COLUMBUS       CLOUDY    75  61  61 E7        29.92S
DAYTON         PTSUNNY   73  61  65 E8        29.93F
WILMINGTON     CLOUDY    69  60  73 NE9       29.92R
HUNTINGTON     CLOUDY    73  68  84 SE3       29.88R
CHARLESTON     CLOUDY    77  67  71 SE6       29.89S
PINEVILLE*     CLOUDY    74  70  87 MISG      30.00R
BECKLEY        CLOUDY    70  64  81 SE9G17    29.99R
BLUEFIELD      CLOUDY    70  63  78 S7        30.02R
$$

VAZ002-007-008-TNZ017-027-036-066-071-031700
...SOUTHWEST VIRGINIA/EAST TENNESSEE...

CITY           SKY/WX    TMP DP  RH WIND       PRES   REMARKS
WISE*          CLOUDY    70  68  94 S7        30.01S
JONESVILLE*      N/A    N/A N/A N/A MISG        N/A
ABINGDON*      PTSUNNY   77  70  79 SW9       29.98S
BRISTOL        CLOUDY    79  68  69 SW9       29.94F
KNOXVILLE      CLOUDY    75  72  90 S13       29.93R
OAK RIDGE      LGT RAIN  76  71  85 VRB5      29.94R
CROSSVILLE     PTSUNNY   74  65  73 W15G21    29.98R
NASHVILLE      CLOUDY    77  70  79 W7        29.92R
$$

...KEY TO REMARKS...
VSB - VISIBILITY IN MILES
WCI - WIND CHILL INDEX
HX  - HEAT INDEX

$$


USA.gov is the U.S. government's official web portal to all federal, state and local government web resources and services.